When you browse on this site, cookies collect data to enhance your experience and personalize the content and advertising you see.
Visit our Privacy Policy to learn more. By continuing to use the site, you agree to this use of cookies and data.
  • în România
  • Lista ţărilor
  • Pe 7 zile
  • Temperatura apei
  • Hartă satelitară
  • Meteo pe hartă
  • Widget-uri
  • user-avatar
    Intrare

    Meteo pe oră la Zebrzydow

    Astăzi, 24 Februarie, Duminică

    Timp Temperatura Precipitaţii Vânt Presiune Umiditate
    00:00 -1°C° 0 mm 1 m/s 762 mmHg 36%
    01:00 -1°C° 0 mm 1 m/s 762 mmHg 35%
    02:00 -1°C° 0 mm 1 m/s 761 mmHg 34%
    03:00 0°C° 0 mm 1 m/s 761 mmHg 33%
    04:00 -1°C° 0 mm 0 m/s 761 mmHg 32%
    05:00 -1°C° 0 mm 0 m/s 761 mmHg 32%
    06:00 0°C° 0 mm 0 m/s 761 mmHg 31%
    07:00 0°C° 0 mm 0 m/s 761 mmHg 31%
    08:00 +1°C° 0 mm 0 m/s 761 mmHg 30%
    09:00 +3°C° 0 mm 1 m/s 760 mmHg 29%
    10:00 +4°C° 0 mm 1 m/s 760 mmHg 28%
    11:00 +5°C° 0 mm 1 m/s 760 mmHg 28%
    12:00 +6°C° 0 mm 2 m/s 760 mmHg 27%
    13:00 +7°C° 0 mm 2 m/s 760 mmHg 27%
    14:00 +7°C° 0 mm 2 m/s 760 mmHg 33%
    15:00 +6°C° 0 mm 2 m/s 760 mmHg 39%
    16:00 +6°C° 0 mm 2 m/s 759 mmHg 44%
    17:00 +5°C° 0 mm 2 m/s 759 mmHg 47%
    18:00 +3°C° 0 mm 2 m/s 759 mmHg 50%
    19:00 +2°C° 0 mm 2 m/s 759 mmHg 53%
    20:00 +2°C° 0 mm 2 m/s 760 mmHg 54%
    21:00 +2°C° 0 mm 2 m/s 760 mmHg 55%
    22:00 +2°C° 0 mm 2 m/s 760 mmHg 57%
    23:00 +2°C° 0 mm 2 m/s 760 mmHg 57%

    Mâine, 25 Februarie, Luni

    Timp Temperatura Precipitaţii Vânt Presiune Umiditate
    00:00 +2°C° 0 mm 2 m/s 760 mmHg 58%
    01:00 +2°C° 0 mm 2 m/s 760 mmHg 59%
    02:00 +2°C° 0 mm 2 m/s 760 mmHg 60%
    03:00 +2°C° 0 mm 2 m/s 759 mmHg 61%
    04:00 +2°C° 0 mm 2 m/s 759 mmHg 62%
    05:00 +2°C° 0 mm 2 m/s 759 mmHg 64%
    06:00 +1°C° 0 mm 2 m/s 759 mmHg 65%
    07:00 +1°C° 0 mm 2 m/s 759 mmHg 67%
    08:00 +2°C° 0 mm 3 m/s 759 mmHg 62%
    09:00 +4°C° 0 mm 3 m/s 759 mmHg 57%
    10:00 +6°C° 0 mm 4 m/s 759 mmHg 52%
    11:00 +6°C° 0 mm 4 m/s 759 mmHg 52%
    12:00 +7°C° 0 mm 4 m/s 759 mmHg 51%
    13:00 +8°C° 0 mm 4 m/s 759 mmHg 51%
    14:00 +8°C° 0 mm 4 m/s 758 mmHg 55%
    15:00 +9°C° 0 mm 3 m/s 758 mmHg 58%
    16:00 +9°C° 0 mm 3 m/s 757 mmHg 61%
    17:00 +8°C° 0 mm 3 m/s 758 mmHg 66%
    18:00 +5°C° 0 mm 3 m/s 758 mmHg 71%
    19:00 +4°C° 0 mm 3 m/s 758 mmHg 75%
    20:00 +3°C° 0 mm 3 m/s 758 mmHg 77%
    21:00 +3°C° 0 mm 3 m/s 758 mmHg 78%
    22:00 +2°C° 0 mm 3 m/s 758 mmHg 80%
    23:00 +2°C° 0 mm 3 m/s 758 mmHg 80%

    Poimâine, 26 Februarie, Marţi

    Timp Temperatura Precipitaţii Vânt Presiune Umiditate
    00:00 +2°C° 0 mm 3 m/s 757 mmHg 81%
    01:00 +2°C° 0 mm 3 m/s 757 mmHg 81%
    02:00 +2°C° 0 mm 3 m/s 757 mmHg 81%
    03:00 +2°C° 0 mm 3 m/s 757 mmHg 81%
    04:00 +2°C° 0 mm 3 m/s 756 mmHg 81%
    05:00 +2°C° 0 mm 3 m/s 756 mmHg 82%
    06:00 +2°C° 0 mm 3 m/s 756 mmHg 82%
    07:00 +2°C° 0 mm 3 m/s 756 mmHg 83%
    08:00 +4°C° 0 mm 4 m/s 756 mmHg 73%
    09:00 +5°C° 0 mm 5 m/s 755 mmHg 63%
    10:00 +7°C° 0 mm 5 m/s 755 mmHg 53%
    11:00 +8°C° 0 mm 6 m/s 755 mmHg 51%
    12:00 +8°C° 0 mm 6 m/s 755 mmHg 50%
    13:00 +9°C° 0 mm 6 m/s 755 mmHg 48%
    14:00 +9°C° 0 mm 6 m/s 754 mmHg 51%
    15:00 +9°C° 0 mm 6 m/s 754 mmHg 54%
    16:00 +9°C° 0 mm 6 m/s 754 mmHg 56%
    17:00 +8°C° 0 mm 5 m/s 754 mmHg 61%
    18:00 +7°C° 0 mm 4 m/s 754 mmHg 65%
    19:00 +6°C° 0 mm 4 m/s 755 mmHg 70%
    20:00 +5°C° 0 mm 4 m/s 755 mmHg 72%
    21:00 +5°C° 0 mm 3 m/s 755 mmHg 74%
    22:00 +4°C° 0 mm 3 m/s 755 mmHg 76%
    23:00 +4°C° 0 mm 3 m/s 755 mmHg 78%

    27 Februarie, Miercuri

    Timp Temperatura Precipitaţii Vânt Presiune Umiditate
    00:00 +4°C° 0 mm 3 m/s 755 mmHg 80%
    01:00 +4°C° 0 mm 2 m/s 755 mmHg 83%
    02:00 +4°C° 0 mm 2 m/s 755 mmHg 84%
    03:00 +4°C° 0 mm 2 m/s 754 mmHg 85%
    04:00 +4°C° 0 mm 2 m/s 754 mmHg 87%
    05:00 +4°C° 0 mm 1 m/s 754 mmHg 86%
    06:00 +4°C° 0 mm 1 m/s 754 mmHg 86%
    07:00 +4°C° 0 mm 1 m/s 754 mmHg 86%
    08:00 +5°C° 0 mm 2 m/s 754 mmHg 77%
    09:00 +7°C° 0 mm 2 m/s 754 mmHg 68%
    10:00 +9°C° 0 mm 2 m/s 754 mmHg 60%
    11:00 +10°C° 0 mm 3 m/s 753 mmHg 55%
    12:00 +12°C° 0 mm 3 m/s 753 mmHg 50%
    13:00 +13°C° 0 mm 3 m/s 752 mmHg 45%
    14:00 +13°C° 0 mm 3 m/s 752 mmHg 46%
    15:00 +13°C° 0 mm 3 m/s 751 mmHg 48%
    16:00 +14°C° 0 mm 2 m/s 751 mmHg 50%
    17:00 +12°C° 0 mm 2 m/s 750 mmHg 55%
    18:00 +10°C° 0 mm 2 m/s 750 mmHg 60%
    19:00 +8°C° 0 mm 2 m/s 750 mmHg 65%
    20:00 +8°C° 0 mm 2 m/s 750 mmHg 65%
    21:00 +7°C° 0 mm 2 m/s 750 mmHg 65%
    22:00 +7°C° 0 mm 2 m/s 749 mmHg 65%
    23:00 +7°C° 0 mm 3 m/s 749 mmHg 64%

    28 Februarie, Joi

    Timp Temperatura Precipitaţii Vânt Presiune Umiditate
    00:00 +7°C° 0 mm 3 m/s 749 mmHg 63%
    01:00 +5°C° 0 mm 3 m/s 748 mmHg 62%
    02:00 +5°C° 0 mm 3 m/s 748 mmHg 62%
    03:00 +5°C° 0 mm 3 m/s 747 mmHg 61%
    04:00 +5°C° 0 mm 3 m/s 747 mmHg 61%
    05:00 +5°C° 0 mm 3 m/s 746 mmHg 62%
    06:00 +4°C° 0 mm 3 m/s 746 mmHg 63%
    07:00 +4°C° 0 mm 3 m/s 746 mmHg 64%
    08:00 +6°C° 0 mm 4 m/s 745 mmHg 60%
    09:00 +8°C° 0 mm 5 m/s 745 mmHg 56%
    10:00 +10°C° 0 mm 6 m/s 745 mmHg 51%
    11:00 +11°C° 0 mm 6 m/s 745 mmHg 52%
    12:00 +12°C° 0 mm 7 m/s 744 mmHg 53%
    13:00 +14°C° 0 mm 7 m/s 744 mmHg 53%
    14:00 +12°C° 0 mm 7 m/s 744 mmHg 56%
    15:00 +12°C° 0 mm 7 m/s 744 mmHg 59%
    16:00 +11°C° 0 mm 6 m/s 743 mmHg 61%
    17:00 +10°C° 0 mm 6 m/s 744 mmHg 69%
    18:00 +9°C° 0 mm 5 m/s 744 mmHg 76%
    19:00 +8°C° 0 mm 4 m/s 744 mmHg 84%
    20:00 +7°C° 0 mm 4 m/s 744 mmHg 86%
    21:00 +6°C° 0 mm 4 m/s 745 mmHg 89%
    22:00 +6°C° 0 mm 4 m/s 745 mmHg 91%
    23:00 +5°C° 0 mm 4 m/s 745 mmHg 92%

    1 Martie, Vineri

    Timp Temperatura Precipitaţii Vânt Presiune Umiditate
    00:00 +5°C° 0 mm 4 m/s 745 mmHg 93%
    01:00 +4°C° 0 mm 3 m/s 745 mmHg 95%
    02:00 +4°C° 0 mm 3 m/s 745 mmHg 94%
    03:00 +4°C° 0 mm 3 m/s 745 mmHg 93%
    04:00 +4°C° 0 mm 4 m/s 745 mmHg 93%
    05:00 +4°C° 0 mm 3 m/s 745 mmHg 93%
    06:00 +3°C° 0 mm 3 m/s 746 mmHg 92%
    07:00 +3°C° 0 mm 3 m/s 746 mmHg 92%
    08:00 +4°C° 0 mm 4 m/s 746 mmHg 86%
    09:00 +5°C° 0 mm 4 m/s 746 mmHg 80%
    10:00 +5°C° 0 mm 5 m/s 747 mmHg 74%
    11:00 +6°C° 0 mm 5 m/s 747 mmHg 69%
    12:00 +7°C° 0 mm 5 m/s 747 mmHg 65%
    13:00 +7°C° 0 mm 5 m/s 747 mmHg 61%
    14:00 +7°C° 0 mm 5 m/s 747 mmHg 60%
    15:00 +7°C° 0 mm 4 m/s 746 mmHg 59%
    16:00 +7°C° 0 mm 4 m/s 746 mmHg 59%
    17:00 +7°C° 0 mm 3 m/s 747 mmHg 63%
    18:00 +5°C° 0 mm 3 m/s 747 mmHg 67%
    19:00 +5°C° 0 mm 2 m/s 747 mmHg 71%
    20:00 +4°C° 0 mm 2 m/s 748 mmHg 72%
    21:00 +4°C° 0 mm 2 m/s 748 mmHg 74%
    22:00 +3°C° 0 mm 2 m/s 748 mmHg 75%
    23:00 +3°C° 0 mm 2 m/s 749 mmHg 77%
    Arată mai mult